Radiosonde details



Informationen :

Serial : D26002507
Type : Graw DFM
Frequency : 403.210MHz
Launchsite : Spokane
Nearest town : Chewelah, US (22.7km)

Altitude (Max) : 36489m at 2026-09-03 07:21:23
Speed (Max) : 96km/h at altitude 9234m

Average speed : 42km/h
Average ascent rate : 5m/s
Average descent rate : -18m/s
Ascent rate (Max) : 18.4m/s
Descent rate (Max): -53.3m/s

First frame :
WB7NNF at 2026-09-03 05:39:41 at altitude 3783m (OG: 3741m)
Last frame :
WB7NNF at 2026-09-03 07:43:39 at altitude 5840m (OG: 5798m)

Flighttime : 2h3m58s
Ascent time : 1h41m42s
Descent time : 22m16s
Uptime : -
Killtimer : -

Distance (Straight line distance): 59km

Distance (Route):


Frames : 330


Measurement :

Temperature : -18.1°C
Humidity : 0%
Pressure : 0hPa


Vertical profile (SkewT) :


Elevation profile :



Receiving stations :


Receiver Frames First received Last received
WB7NNF 330 2026-09-03 05:39:41 2026-09-03 07:43:39

Share per receiver :



All frames :


Receiver Date Latitude Longitude Direction Speed Altitude Climb Temperature Humidity Pressure Voltage Killtimer Uptime BKT XDATA
WB7NNF2026-09-03 07:43:3948.26489-117.4092247km/h5840m-12.6m/s-18.1°C0%0hPa0V00:00:0000:00:0000:00:00
WB7NNF2026-09-03 07:43:1948.26242-117.40890349°47km/h6117m-13.2m/s-18.2°C0%0hPa0V00:00:0000:00:0000:00:00
WB7NNF2026-09-03 07:42:5848.25976-117.40809351°58km/h6377m-12.8m/s-20.1°C0%0hPa0V00:00:0000:00:0000:00:00
WB7NNF2026-09-03 07:42:3848.25686-117.40746356°51km/h6647m-12.8m/s-22.0°C0%0hPa0V00:00:0000:00:0000:00:00
WB7NNF2026-09-03 07:42:1748.25416-117.4072857km/h6901m-12.7m/s-23.7°C0%0hPa0V00:00:0000:00:0000:00:00
WB7NNF2026-09-03 07:41:5748.25110-117.40739359°57km/h7166m-12.3m/s-25.7°C0%0hPa0V00:00:0000:00:0000:00:00
WB7NNF2026-09-03 07:41:3648.24808-117.40726355°62km/h7414m-12.8m/s-27.8°C0%0hPa0V00:00:0000:00:0000:00:00
WB7NNF2026-09-03 07:41:1648.24476-117.40668349°62km/h7679m-12.7m/s-29.7°C0%0hPa0V00:00:0000:00:0000:00:00
WB7NNF2026-09-03 07:40:5548.24151-117.40591354°62km/h7934m-13.1m/s-31.9°C0%0hPa0V00:00:0000:00:0000:00:00
WB7NNF2026-09-03 07:40:3548.23808-117.40535355°66km/h8206m-13.3m/s-34.3°C0%0hPa0V00:00:0000:00:0000:00:00
WB7NNF2026-09-03 07:40:1448.23448-117.40474355°71km/h8487m-13.9m/s-36.6°C0%0hPa0V00:00:0000:00:0000:00:00
WB7NNF2026-09-03 07:39:5348.23092-117.40423357°75km/h8759m-13.4m/s-39.1°C0%0hPa0V00:00:0000:00:0000:00:00
WB7NNF2026-09-03 07:39:3348.22697-117.40376356°75km/h9041m-13.4m/s-41.6°C0%0hPa0V00:00:0000:00:0000:00:00
WB7NNF2026-09-03 07:39:1248.22312-117.40327357°78km/h9313m-14.1m/s-44.0°C0%0hPa0V00:00:0000:00:0000:00:00
WB7NNF2026-09-03 07:38:5248.21888-117.40292358°80km/h9598m-13.3m/s-46.6°C0%0hPa0V00:00:0000:00:0000:00:00
WB7NNF2026-09-03 07:38:3148.21472-117.40270360°84km/h9876m-14.0m/s-48.8°C0%0hPa0V00:00:0000:00:0000:00:00
WB7NNF2026-09-03 07:38:1148.21032-117.40238357°86km/h10168m-13.7m/s-51.3°C0%0hPa0V00:00:0000:00:0000:00:00
WB7NNF2026-09-03 07:37:5048.20614-117.40146351°84km/h10454m-13.7m/s-53.4°C0%0hPa0V00:00:0000:00:0000:00:00
WB7NNF2026-09-03 07:37:3048.20175-117.40055357°82km/h10756m-14.4m/s-55.7°C0%0hPa0V00:00:0000:00:0000:00:00
WB7NNF2026-09-03 07:37:0948.19790-117.4009162km/h11042m-14.0m/s-53.2°C0%0hPa0V00:00:0000:00:0000:00:00
WB7NNF2026-09-03 07:36:4948.19480-117.40042349°60km/h11349m-14.3m/s-52.6°C0%0hPa0V00:00:0000:00:0000:00:00
WB7NNF2026-09-03 07:36:2848.19182-117.39912351°64km/h11639m-14.5m/s-52.7°C0%0hPa0V00:00:0000:00:0000:00:00
WB7NNF2026-09-03 07:36:0848.18834-117.3991313°69km/h11954m-15.8m/s-50.3°C0%0hPa0V00:00:0000:00:0000:00:00
WB7NNF2026-09-03 07:35:4748.18513-117.4004325°62km/h12268m-15.9m/s-48.9°C0%0hPa0V00:00:0000:00:0000:00:00
WB7NNF2026-09-03 07:35:2748.18255-117.4026133°49km/h12605m-15.7m/s-47.5°C0%0hPa0V00:00:0000:00:0000:00:00
WB7NNF2026-09-03 07:35:0648.18028-117.40340361°47km/h12960m-17.2m/s-49.1°C0%0hPa0V00:00:0000:00:0000:00:00
WB7NNF2026-09-03 07:34:4548.17803-117.4047920°47km/h13289m-16.5m/s-49.0°C0%0hPa0V00:00:0000:00:0000:00:00
WB7NNF2026-09-03 07:34:2548.17577-117.4064635°47km/h13615m-15.7m/s-48.1°C0%0hPa0V00:00:0000:00:0000:00:00
WB7NNF2026-09-03 07:34:0448.17385-117.4089048°51km/h13931m-16.2m/s-48.3°C0%0hPa0V00:00:0000:00:0000:00:00
WB7NNF2026-09-03 07:33:4448.17230-117.4119663°35km/h14272m-16.2m/s-47.8°C0%0hPa0V00:00:0000:00:0000:00:00
WB7NNF2026-09-03 07:33:2348.17184-117.4134074°13km/h14597m-16.0m/s-49.9°C0%0hPa0V00:00:0000:00:0000:00:00
WB7NNF2026-09-03 07:33:0348.17117-117.4139920°31km/h14938m-15.9m/s-50.1°C0%0hPa0V00:00:0000:00:0000:00:00
WB7NNF2026-09-03 07:32:4248.16910-117.4146318°47km/h15267m-16.1m/s-50.5°C0%0hPa0V00:00:0000:00:0000:00:00
WB7NNF2026-09-03 07:32:2248.16672-117.4166238°51km/h15617m-17.6m/s-48.9°C0%0hPa0V00:00:0000:00:0000:00:00
WB7NNF2026-09-03 07:32:0148.16462-117.4184820°47km/h15968m-18.5m/s-49.2°C0%0hPa0V00:00:0000:00:0000:00:00
WB7NNF2026-09-03 07:31:4148.16215-117.4196126°38km/h16354m-19.1m/s-46.9°C0%0hPa0V00:00:0000:00:0000:00:00
WB7NNF2026-09-03 07:31:2048.16011-117.4207526°42km/h16727m-19.5m/s-48.2°C0%0hPa0V00:00:0000:00:0000:00:00
WB7NNF2026-09-03 07:31:0048.15801-117.4220628°44km/h17131m-19.9m/s-48.8°C0%0hPa0V00:00:0000:00:0000:00:00
WB7NNF2026-09-03 07:30:3948.15580-117.4241638°49km/h17524m-20.1m/s-50.7°C0%0hPa0V00:00:0000:00:0000:00:00
WB7NNF2026-09-03 07:30:1948.15408-117.4266942°40km/h17947m-21.1m/s-50.2°C0%0hPa0V00:00:0000:00:0000:00:00
WB7NNF2026-09-03 07:29:5848.15228-117.4287939°38km/h18406m-23.0m/s-51.9°C0%0hPa0V00:00:0000:00:0000:00:00
WB7NNF2026-09-03 07:29:3748.15043-117.4294829°38km/h18872m-23.6m/s-50.3°C0%0hPa0V00:00:0000:00:0000:00:00
WB7NNF2026-09-03 07:29:1748.14942-117.4306258°11km/h19382m-23.1m/s-50.2°C0%0hPa0V00:00:0000:00:0000:00:00
WB7NNF2026-09-03 07:28:5648.14912-117.43087359°18km/h19873m-24.7m/s-51.0°C0%0hPa0V00:00:0000:00:0000:00:00
WB7NNF2026-09-03 07:28:3648.14789-117.4311324km/h20403m-24.3m/s-51.7°C0%0hPa0V00:00:0000:00:0000:00:00
WB7NNF2026-09-03 07:28:1548.14702-117.431500km/h20904m-25.4m/s-51.9°C0%0hPa0V00:00:0000:00:0000:00:00
WB7NNF2026-09-03 07:27:5548.14755-117.43150198°9km/h21441m-26.5m/s-52.9°C0%0hPa0V00:00:0000:00:0000:00:00
WB7NNF2026-09-03 07:27:3448.14722-117.4319467°22km/h22002m-29.5m/s-52.8°C0%0hPa0V00:00:0000:00:0000:00:00
WB7NNF2026-09-03 07:27:1448.14748-117.43366118°16km/h22627m-31.0m/s-53.8°C0%0hPa0V00:00:0000:00:0000:00:00
WB7NNF2026-09-03 07:26:5348.14730-117.4346094°20km/h23214m-32.2m/s-51.3°C0%0hPa0V00:00:0000:00:0000:00:00
WB7NNF2026-09-03 07:26:3348.14777-117.43445277°13km/h23891m-34.4m/s-51.9°C0%0hPa0V00:00:0000:00:0000:00:00
WB7NNF2026-09-03 07:26:1248.14775-117.43407300°9km/h24544m-33.5m/s-53.2°C0%0hPa0V00:00:0000:00:0000:00:00
WB7NNF2026-09-03 07:25:5248.14779-117.43390208°11km/h25274m-35.0m/s-51.2°C0%0hPa0V00:00:0000:00:0000:00:00
WB7NNF2026-09-03 07:25:3148.14793-117.43241290°24km/h25999m-37.4m/s-50.5°C0%0hPa0V00:00:0000:00:0000:00:00
WB7NNF2026-09-03 07:25:1148.14795-117.43160299°13km/h26748m-37.4m/s-48.3°C0%0hPa0V00:00:0000:00:0000:00:00
WB7NNF2026-09-03 07:24:5048.14707-117.4315629°13km/h27543m-41.2m/s-48.1°C0%0hPa0V00:00:0000:00:0000:00:00
WB7NNF2026-09-03 07:24:3048.14686-117.43194361°5km/h28409m-44.1m/s-47.5°C0%0hPa0V00:00:0000:00:0000:00:00
WB7NNF2026-09-03 07:24:0948.14654-117.4327495°9km/h29294m-41.8m/s-47.0°C0%0hPa0V00:00:0000:00:0000:00:00
WB7NNF2026-09-03 07:23:4848.14698-117.43353142°13km/h30098m-38.9m/s-45.4°C0%0hPa0V00:00:0000:00:0000:00:00
WB7NNF2026-09-03 07:23:2848.14776-117.43378165°18km/h31012m-42.3m/s-42.8°C0%0hPa0V00:00:0000:00:0000:00:00
WB7NNF2026-09-03 07:23:0748.14881-117.43385159°11km/h31926m-49.4m/s-41.1°C0%0hPa0V00:00:0000:00:0000:00:00
WB7NNF2026-09-03 07:22:2648.15016-117.43507221°4km/h33778m-46.2m/s-39.3°C0%0hPa0V00:00:0000:00:0000:00:00
WB7NNF2026-09-03 07:22:0448.15008-117.43525244°2km/h34864m-53.3m/s-34.6°C0%0hPa0V00:00:0000:00:0000:00:00
WB7NNF2026-09-03 07:21:4348.15021-117.43598122°22km/h35828m-32.9m/s-35.0°C0%0hPa0V00:00:0000:00:0000:00:00
WB7NNF2026-09-03 07:21:2348.15129-117.43585217°37km/h36489m-36.6m/s-33.1°C0%0hPa0V00:00:0000:00:0000:00:00
WB7NNF2026-09-03 07:21:0048.15273-117.43492218°33km/h36422m6.2m/s-33.1°C0%0hPa0V00:00:0000:00:0000:00:00
WB7NNF2026-09-03 07:20:4048.15393-117.43464243°11km/h36282m6.8m/s-33.8°C0%0hPa0V00:00:0000:00:0000:00:00
WB7NNF2026-09-03 07:20:1948.15453-117.43388181°11km/h36146m7.3m/s-34.3°C0%0hPa0V00:00:0000:00:0000:00:00
WB7NNF2026-09-03 07:19:5948.15555-117.43392173°38km/h36007m6.5m/s-35.0°C0%0hPa0V00:00:0000:00:0000:00:00
WB7NNF2026-09-03 07:19:3848.15664-117.43484170°16km/h35876m6.3m/s-35.0°C0%0hPa0V00:00:0000:00:0000:00:00
WB7NNF2026-09-03 07:19:1848.15726-117.4361798°5km/h35745m5.8m/s-34.7°C0%0hPa0V00:00:0000:00:0000:00:00
WB7NNF2026-09-03 07:18:5748.15761-117.4373455°11km/h35625m6.0m/s-34.2°C0%0hPa0V00:00:0000:00:0000:00:00
WB7NNF2026-09-03 07:18:3748.15789-117.4381044°15km/h35504m5.5m/s-34.4°C0%0hPa0V00:00:0000:00:0000:00:00
WB7NNF2026-09-03 07:18:1648.15794-117.4382744°15km/h35386m5.8m/s-35.3°C0%0hPa0V00:00:0000:00:0000:00:00
WB7NNF2026-09-03 07:17:5648.15790-117.4383444°9km/h35262m5.9m/s-35.6°C0%0hPa0V00:00:0000:00:0000:00:00
WB7NNF2026-09-03 07:17:3548.15804-117.43845134°18km/h35143m5.8m/s-35.3°C0%0hPa0V00:00:0000:00:0000:00:00
WB7NNF2026-09-03 07:17:1548.15802-117.43882175°20km/h35011m5.3m/s-35.0°C0%0hPa0V00:00:0000:00:0000:00:00
WB7NNF2026-09-03 07:16:5448.15758-117.43835300°24km/h34884m6.1m/s-34.7°C0%0hPa0V00:00:0000:00:0000:00:00
WB7NNF2026-09-03 07:16:3448.15719-117.43716294°18km/h34747m6.5m/s-35.7°C0%0hPa0V00:00:0000:00:0000:00:00
WB7NNF2026-09-03 07:16:1348.15686-117.43598337°18km/h34612m4.5m/s-35.9°C0%0hPa0V00:00:0000:00:0000:00:00
WB7NNF2026-09-03 07:15:5348.15647-117.4367497°38km/h34468m3.9m/s-36.1°C0%0hPa0V00:00:0000:00:0000:00:00
WB7NNF2026-09-03 07:15:3248.15645-117.43742125°24km/h34335m4.7m/s-36.5°C0%0hPa0V00:00:0000:00:0000:00:00
WB7NNF2026-09-03 07:15:1148.15675-117.43814240°2km/h34206m7.1m/s-37.4°C0%0hPa0V00:00:0000:00:0000:00:00
WB7NNF2026-09-03 07:14:5148.15712-117.43960109°18km/h34088m5.4m/s-38.6°C0%0hPa0V00:00:0000:00:0000:00:00
WB7NNF2026-09-03 07:14:3048.15733-117.4408299°20km/h33983m8.2m/s-39.3°C0%0hPa0V00:00:0000:00:0000:00:00
WB7NNF2026-09-03 07:14:1048.15712-117.4419750°13km/h33867m5.8m/s-39.8°C0%0hPa0V00:00:0000:00:0000:00:00
WB7NNF2026-09-03 07:13:4848.15711-117.44233234°9km/h33758m-3.6m/s-40.1°C0%0hPa0V00:00:0000:00:0000:00:00
WB7NNF2026-09-03 07:13:2748.15780-117.44344133°20km/h33627m5.8m/s-40.4°C0%0hPa0V00:00:0000:00:0000:00:00
WB7NNF2026-09-03 07:13:0648.15857-117.44486247°11km/h33522m18.4m/s-40.5°C0%0hPa0V00:00:0000:00:0000:00:00
WB7NNF2026-09-03 07:12:4648.15917-117.44592123°47km/h33379m7.3m/s-41.5°C0%0hPa0V00:00:0000:00:0000:00:00
WB7NNF2026-09-03 07:12:2548.16011-117.44671132°29km/h33250m7.1m/s-41.7°C0%0hPa0V00:00:0000:00:0000:00:00
WB7NNF2026-09-03 07:12:0548.16073-117.44743137°7km/h33091m6.6m/s-41.7°C0%0hPa0V00:00:0000:00:0000:00:00
WB7NNF2026-09-03 07:11:4448.16162-117.44809186°37km/h32945m1.5m/s-41.3°C0%0hPa0V00:00:0000:00:0000:00:00
WB7NNF2026-09-03 07:11:2448.16216-117.4491864°27km/h32787m3.6m/s-41.3°C0%0hPa0V00:00:0000:00:0000:00:00
WB7NNF2026-09-03 07:11:0348.16281-117.44932261°35km/h32643m2.4m/s-41.9°C0%0hPa0V00:00:0000:00:0000:00:00
WB7NNF2026-09-03 07:10:4348.16321-117.44892178°7km/h32498m3.7m/s-41.7°C0%0hPa0V00:00:0000:00:0000:00:00
WB7NNF2026-09-03 07:10:2248.16365-117.44890202°9km/h32373m9.2m/s-41.5°C0%0hPa0V00:00:0000:00:0000:00:00
WB7NNF2026-09-03 07:09:4148.16404-117.44839155°7km/h32123m2.1m/s-41.5°C0%0hPa0V00:00:0000:00:0000:00:00
WB7NNF2026-09-03 07:09:1948.16517-117.44819181°26km/h31998m3.6m/s-42.8°C0%0hPa0V00:00:0000:00:0000:00:00
WB7NNF2026-09-03 07:08:5848.16582-117.44854220°9km/h31887m4.6m/s-43.3°C0%0hPa0V00:00:0000:00:0000:00:00
WB7NNF2026-09-03 07:08:3648.16717-117.44758225°18km/h31757m8.8m/s-43.4°C0%0hPa0V00:00:0000:00:0000:00:00
WB7NNF2026-09-03 07:08:1548.16870-117.44707195°42km/h31651m-0.6m/s-43.3°C0%0hPa0V00:00:0000:00:0000:00:00
WB7NNF2026-09-03 07:07:5448.17038-117.44739162°42km/h31507m-0.3m/s-43.3°C0%0hPa0V00:00:0000:00:0000:00:00
WB7NNF2026-09-03 07:07:1048.17202-117.44894317°62km/h31196m5.2m/s-44.7°C0%0hPa0V00:00:0000:00:0000:00:00
WB7NNF2026-09-03 07:06:4848.17218-117.44923192°26km/h31043m5.3m/s-45.3°C0%0hPa0V00:00:0000:00:0000:00:00
WB7NNF2026-09-03 07:06:2748.17258-117.44928265°26km/h30891m-0.0m/s-45.9°C0%0hPa0V00:00:0000:00:0000:00:00
WB7NNF2026-09-03 07:06:0548.17312-117.44920202°22km/h30750m6.8m/s-45.9°C0%0hPa0V00:00:0000:00:0000:00:00
WB7NNF2026-09-03 07:05:4448.17371-117.44920190°33km/h30594m9.8m/s-46.1°C0%0hPa0V00:00:0000:00:0000:00:00
WB7NNF2026-09-03 07:05:2348.17436-117.44960188°15km/h30475m9.1m/s-46.2°C0%0hPa0V00:00:0000:00:0000:00:00
WB7NNF2026-09-03 07:05:0048.17485-117.44946142°31km/h30318m8.5m/s-46.4°C0%0hPa0V00:00:0000:00:0000:00:00
WB7NNF2026-09-03 07:04:3748.17518-117.44932183°35km/h30177m-2.3m/s-46.4°C0%0hPa0V00:00:0000:00:0000:00:00
WB7NNF2026-09-03 07:04:1548.17583-117.44970187°22km/h30042m-1.0m/s-46.5°C0%0hPa0V00:00:0000:00:0000:00:00
WB7NNF2026-09-03 07:03:5448.17633-117.45007225°18km/h29910m-2.1m/s-46.5°C0%0hPa0V00:00:0000:00:0000:00:00
WB7NNF2026-09-03 07:03:3348.17713-117.45077341°38km/h29789m15.2m/s-46.3°C0%0hPa0V00:00:0000:00:0000:00:00
WB7NNF2026-09-03 07:03:1348.17727-117.45138110°31km/h29654m5.0m/s-46.2°C0%0hPa0V00:00:0000:00:0000:00:00
WB7NNF2026-09-03 07:02:5248.17678-117.4521956°9km/h29537m6.5m/s-46.7°C0%0hPa0V00:00:0000:00:0000:00:00
WB7NNF2026-09-03 07:02:3248.17645-117.45266180°31km/h29407m-1.8m/s-47.4°C0%0hPa0V00:00:0000:00:0000:00:00
WB7NNF2026-09-03 07:02:1148.17661-117.45327155°29km/h29283m-2.4m/s-47.5°C0%0hPa0V00:00:0000:00:0000:00:00
WB7NNF2026-09-03 07:01:4948.17664-117.45476113°31km/h29147m-1.6m/s-47.6°C0%0hPa0V00:00:0000:00:0000:00:00
WB7NNF2026-09-03 07:01:2848.17626-117.4565596°29km/h29020m0.9m/s-48.1°C0%0hPa0V00:00:0000:00:0000:00:00
WB7NNF2026-09-03 07:01:0848.17574-117.45748101°24km/h28887m2.7m/s-47.9°C0%0hPa0V00:00:0000:00:0000:00:00
WB7NNF2026-09-03 07:00:4748.17523-117.45808127°16km/h28759m9.9m/s-48.5°C0%0hPa0V00:00:0000:00:0000:00:00
WB7NNF2026-09-03 07:00:2748.17496-117.45860236°37km/h28641m1.3m/s-48.5°C0%0hPa0V00:00:0000:00:0000:00:00
WB7NNF2026-09-03 07:00:0648.17501-117.45847300°20km/h28508m0.0m/s-48.9°C0%0hPa0V00:00:0000:00:0000:00:00
WB7NNF2026-09-03 06:59:4448.17549-117.4589171°5km/h28382m1.2m/s-49.2°C0%0hPa0V00:00:0000:00:0000:00:00
WB7NNF2026-09-03 06:59:2348.17579-117.4597638°18km/h28255m2.9m/s-49.4°C0%0hPa0V00:00:0000:00:0000:00:00
WB7NNF2026-09-03 06:59:0348.17564-117.46027343°27km/h28121m7.6m/s-49.4°C0%0hPa0V00:00:0000:00:0000:00:00
WB7NNF2026-09-03 06:58:2248.17425-117.46031335°44km/h27864m11.0m/s-49.6°C0%0hPa0V00:00:0000:00:0000:00:00
WB7NNF2026-09-03 06:58:0148.17359-117.4602220°42km/h27738m8.8m/s-49.4°C0%0hPa0V00:00:0000:00:0000:00:00
WB7NNF2026-09-03 06:57:4148.17310-117.4604425°49km/h27609m-0.1m/s-49.9°C0%0hPa0V00:00:0000:00:0000:00:00
WB7NNF2026-09-03 06:57:2048.17227-117.46034309°60km/h27494m10.6m/s-49.5°C0%0hPa0V00:00:0000:00:0000:00:00
WB7NNF2026-09-03 06:57:0048.17064-117.4595716°53km/h27372m2.9m/s-49.4°C0%0hPa0V00:00:0000:00:0000:00:00
WB7NNF2026-09-03 06:56:3748.16902-117.45857274°51km/h27245m5.3m/s-49.8°C0%0hPa0V00:00:0000:00:0000:00:00
WB7NNF2026-09-03 06:56:1748.16798-117.45737295°40km/h27115m1.0m/s-49.9°C0%0hPa0V00:00:0000:00:0000:00:00
WB7NNF2026-09-03 06:55:5648.16760-117.45601242°58km/h27000m6.6m/s-49.8°C0%0hPa0V00:00:0000:00:0000:00:00
WB7NNF2026-09-03 06:55:3648.16747-117.45430105°16km/h26886m14.1m/s-49.5°C0%0hPa0V00:00:0000:00:0000:00:00
WB7NNF2026-09-03 06:55:1548.16777-117.45317189°44km/h26762m-1.7m/s-49.1°C0%0hPa0V00:00:0000:00:0000:00:00
WB7NNF2026-09-03 06:54:5348.16837-117.45216212°18km/h26631m9.3m/s-49.0°C0%0hPa0V00:00:0000:00:0000:00:00
WB7NNF2026-09-03 06:54:3248.16901-117.45089202°18km/h26515m8.4m/s-49.6°C0%0hPa0V00:00:0000:00:0000:00:00
WB7NNF2026-09-03 06:54:1248.16983-117.45005327°20km/h26387m11.8m/s-49.7°C0%0hPa0V00:00:0000:00:0000:00:00
WB7NNF2026-09-03 06:53:5048.17058-117.44969283°49km/h26266m4.5m/s-50.3°C0%0hPa0V00:00:0000:00:0000:00:00
WB7NNF2026-09-03 06:53:2948.17078-117.44878287°44km/h26148m-0.9m/s-50.9°C0%0hPa0V00:00:0000:00:0000:00:00
WB7NNF2026-09-03 06:53:0548.17091-117.44720245°22km/h26010m1.8m/s-50.8°C0%0hPa0V00:00:0000:00:0000:00:00
WB7NNF2026-09-03 06:52:4448.17128-117.44552233°20km/h25890m10.2m/s-51.3°C0%0hPa0V00:00:0000:00:0000:00:00
WB7NNF2026-09-03 06:52:2348.17192-117.44397308°38km/h25760m1.5m/s-51.4°C0%0hPa0V00:00:0000:00:0000:00:00
WB7NNF2026-09-03 06:52:0148.17288-117.44289195°18km/h25625m12.3m/s-51.4°C0%0hPa0V00:00:0000:00:0000:00:00
WB7NNF2026-09-03 06:51:4048.17397-117.44303161°22km/h25507m13.4m/s-51.3°C0%0hPa0V00:00:0000:00:0000:00:00
WB7NNF2026-09-03 06:51:1848.17487-117.4436011km/h25370m0.7m/s-51.8°C0%0hPa0V00:00:0000:00:0000:00:00
WB7NNF2026-09-03 06:50:4148.17574-117.44347141°20km/h25151m4.3m/s-52.2°C0%0hPa0V00:00:0000:00:0000:00:00
WB7NNF2026-09-03 06:50:1948.17554-117.44397352°46km/h25009m4.1m/s-52.4°C0%0hPa0V00:00:0000:00:0000:00:00
WB7NNF2026-09-03 06:49:3648.17477-117.44212239°27km/h24764m4.5m/s-52.2°C0%0hPa0V00:00:0000:00:0000:00:00
WB7NNF2026-09-03 06:49:1548.17412-117.44106356°42km/h24636m2.2m/s-52.0°C0%0hPa0V00:00:0000:00:0000:00:00
WB7NNF2026-09-03 06:48:5548.17366-117.4401426°26km/h24526m2.8m/s-51.8°C0%0hPa0V00:00:0000:00:0000:00:00
WB7NNF2026-09-03 06:48:3448.17343-117.43882252°51km/h24405m8.9m/s-51.5°C0%0hPa0V00:00:0000:00:0000:00:00
WB7NNF2026-09-03 06:48:1448.17342-117.43810244°51km/h24291m10.6m/s-51.1°C0%0hPa0V00:00:0000:00:0000:00:00
WB7NNF2026-09-03 06:47:5348.17396-117.43804217°35km/h24184m1.2m/s-51.5°C0%0hPa0V00:00:0000:00:0000:00:00
WB7NNF2026-09-03 06:47:2748.17399-117.43826270°31km/h24052m-1.0m/s-51.7°C0%0hPa0V00:00:0000:00:0000:00:00
WB7NNF2026-09-03 06:47:0648.17367-117.4381365°31km/h23939m9.2m/s-51.7°C0%0hPa0V00:00:0000:00:0000:00:00
WB7NNF2026-09-03 06:46:4448.17410-117.43768229°37km/h23823m10.4m/s-52.0°C0%0hPa0V00:00:0000:00:0000:00:00
WB7NNF2026-09-03 06:46:2248.17464-117.43742107°26km/h23708m2.7m/s-52.4°C0%0hPa0V00:00:0000:00:0000:00:00
WB7NNF2026-09-03 06:46:0148.17525-117.43795252°33km/h23590m2.3m/s-52.8°C0%0hPa0V00:00:0000:00:0000:00:00
WB7NNF2026-09-03 06:45:4048.17549-117.4393286°55km/h23464m6.7m/s-52.8°C0%0hPa0V00:00:0000:00:0000:00:00
WB7NNF2026-09-03 06:45:2048.17540-117.44121122°53km/h23356m1.8m/s-52.4°C0%0hPa0V00:00:0000:00:0000:00:00
WB7NNF2026-09-03 06:44:5948.17528-117.4425065°18km/h23239m4.7m/s-51.5°C0%0hPa0V00:00:0000:00:0000:00:00
WB7NNF2026-09-03 06:44:3748.17516-117.44306206°37km/h23118m8.5m/s-50.9°C0%0hPa0V00:00:0000:00:0000:00:00
WB7NNF2026-09-03 06:44:1748.17502-117.4429245°27km/h23002m8.5m/s-50.9°C0%0hPa0V00:00:0000:00:0000:00:00
WB7NNF2026-09-03 06:43:5648.17546-117.44346190°26km/h22888m8.1m/s-51.5°C0%0hPa0V00:00:0000:00:0000:00:00
WB7NNF2026-09-03 06:43:3548.17525-117.4441246°33km/h22774m-1.4m/s-52.4°C0%0hPa0V00:00:0000:00:0000:00:00
WB7NNF2026-09-03 06:43:1448.17527-117.44477146°16km/h22670m4.1m/s-53.0°C0%0hPa0V00:00:0000:00:0000:00:00
WB7NNF2026-09-03 06:42:5448.17592-117.44537275°27km/h22561m4.0m/s-53.3°C0%0hPa0V00:00:0000:00:0000:00:00
WB7NNF2026-09-03 06:42:3348.17645-117.4471496°44km/h22463m5.6m/s-53.8°C0%0hPa0V00:00:0000:00:0000:00:00
WB7NNF2026-09-03 06:42:1348.17711-117.44875194°27km/h22352m1.4m/s-53.3°C0%0hPa0V00:00:0000:00:0000:00:00
WB7NNF2026-09-03 06:41:2148.17682-117.451450km/h22091m3.2m/s-52.8°C0%0hPa0V00:00:0000:00:0000:00:00
WB7NNF2026-09-03 06:41:0148.17606-117.4523451°53km/h21976m-0.5m/s-52.2°C0%0hPa0V00:00:0000:00:0000:00:00
WB7NNF2026-09-03 06:40:4048.17533-117.4529983°29km/h21861m9.2m/s-52.6°C0%0hPa0V00:00:0000:00:0000:00:00
WB7NNF2026-09-03 06:40:1848.17460-117.4533827°38km/h21744m5.6m/s-53.4°C0%0hPa0V00:00:0000:00:0000:00:00
WB7NNF2026-09-03 06:39:5748.17382-117.45296165°18km/h21632m3.1m/s-52.7°C0%0hPa0V00:00:0000:00:0000:00:00
WB7NNF2026-09-03 06:39:3648.17327-117.45270359°22km/h21500m4.6m/s-52.2°C0%0hPa0V00:00:0000:00:0000:00:00
WB7NNF2026-09-03 06:39:1448.17351-117.45200240°18km/h21374m4.3m/s-52.0°C0%0hPa0V00:00:0000:00:0000:00:00
WB7NNF2026-09-03 06:38:5248.17361-117.45224142°22km/h21243m4.7m/s-52.1°C0%0hPa0V00:00:0000:00:0000:00:00
WB7NNF2026-09-03 06:38:3148.17385-117.45244267°26km/h21126m0.4m/s-51.6°C0%0hPa0V00:00:0000:00:0000:00:00
WB7NNF2026-09-03 06:37:4848.17336-117.4528148°26km/h20901m4.4m/s-51.8°C0%0hPa0V00:00:0000:00:0000:00:00
WB7NNF2026-09-03 06:37:2648.17264-117.4534020°18km/h20787m7.2m/s-52.8°C0%0hPa0V00:00:0000:00:0000:00:00
WB7NNF2026-09-03 06:37:0548.17137-117.4541347km/h20683m0.8m/s-53.0°C0%0hPa0V00:00:0000:00:0000:00:00
WB7NNF2026-09-03 06:36:4348.17024-117.45426323°26km/h20576m7.0m/s-52.7°C0%0hPa0V00:00:0000:00:0000:00:00
WB7NNF2026-09-03 06:36:2248.16910-117.45426237°4km/h20465m9.2m/s-52.2°C0%0hPa0V00:00:0000:00:0000:00:00
WB7NNF2026-09-03 06:36:0048.16855-117.4545331km/h20360m7.8m/s-51.7°C0%0hPa0V00:00:0000:00:0000:00:00
WB7NNF2026-09-03 06:35:3048.16797-117.4556475°37km/h20204m9.4m/s-51.3°C0%0hPa0V00:00:0000:00:0000:00:00
WB7NNF2026-09-03 06:35:0848.16705-117.45646344°62km/h20081m4.6m/s-51.8°C0%0hPa0V00:00:0000:00:0000:00:00
WB7NNF2026-09-03 06:34:4548.16573-117.4567328°58km/h19946m0.6m/s-51.0°C0%0hPa0V00:00:0000:00:0000:00:00
WB7NNF2026-09-03 06:34:2348.16492-117.45730201°29km/h19828m3.3m/s-50.3°C0%0hPa0V00:00:0000:00:0000:00:00
WB7NNF2026-09-03 06:34:0048.16453-117.4584788°24km/h19707m5.7m/s-51.8°C0%0hPa0V00:00:0000:00:0000:00:00
WB7NNF2026-09-03 06:33:4048.16403-117.4595544°35km/h19597m7.8m/s-51.4°C0%0hPa0V00:00:0000:00:0000:00:00
WB7NNF2026-09-03 06:33:1848.16320-117.4610353km/h19471m3.3m/s-51.8°C0%0hPa0V00:00:0000:00:0000:00:00
WB7NNF2026-09-03 06:32:5548.16201-117.4625844°20km/h19351m3.1m/s-51.2°C0%0hPa0V00:00:0000:00:0000:00:00
WB7NNF2026-09-03 06:32:3548.16101-117.46368358°49km/h19236m0.5m/s-50.8°C0%0hPa0V00:00:0000:00:0000:00:00
WB7NNF2026-09-03 06:32:1148.16021-117.4650521°38km/h19120m4.3m/s-50.7°C0%0hPa0V00:00:0000:00:0000:00:00
WB7NNF2026-09-03 06:31:4748.15876-117.4668636°33km/h18998m-1.0m/s-51.0°C0%0hPa0V00:00:0000:00:0000:00:00
WB7NNF2026-09-03 06:31:2448.15652-117.46879349°24km/h18918m-3.1m/s-51.8°C0%0hPa0V00:00:0000:00:0000:00:00
WB7NNF2026-09-03 06:31:0448.15476-117.4696838km/h18842m6.7m/s-52.1°C0%0hPa0V00:00:0000:00:0000:00:00
WB7NNF2026-09-03 06:30:4248.15306-117.47031293°26km/h18755m5.1m/s-53.4°C0%0hPa0V00:00:0000:00:0000:00:00
WB7NNF2026-09-03 06:30:1848.15145-117.47179360°53km/h18657m2.5m/s-53.8°C0%0hPa0V00:00:0000:00:0000:00:00
WB7NNF2026-09-03 06:29:5648.14975-117.4737240km/h18564m6.4m/s-54.0°C0%0hPa0V00:00:0000:00:0000:00:00
WB7NNF2026-09-03 06:29:3448.14764-117.4760144°18km/h18457m4.9m/s-53.5°C0%0hPa0V00:00:0000:00:0000:00:00
WB7NNF2026-09-03 06:29:1348.14572-117.4780657°40km/h18346m7.4m/s-53.2°C0%0hPa0V00:00:0000:00:0000:00:00
WB7NNF2026-09-03 06:28:5348.14404-117.4796029°35km/h18233m7.0m/s-52.7°C0%0hPa0V00:00:0000:00:0000:00:00
WB7NNF2026-09-03 06:28:3248.14202-117.4812830°42km/h18107m7.2m/s-51.8°C0%0hPa0V00:00:0000:00:0000:00:00
WB7NNF2026-09-03 06:28:1248.14054-117.48260352°38km/h17978m4.9m/s-50.8°C0%0hPa0V00:00:0000:00:0000:00:00
WB7NNF2026-09-03 06:27:5148.13882-117.4840317°2km/h17859m7.0m/s-50.1°C0%0hPa0V00:00:0000:00:0000:00:00
WB7NNF2026-09-03 06:27:3048.13720-117.4860538°46km/h17733m5.4m/s-50.1°C0%0hPa0V00:00:0000:00:0000:00:00
WB7NNF2026-09-03 06:27:0848.13580-117.4881949°22km/h17624m2.5m/s-50.3°C0%0hPa0V00:00:0000:00:0000:00:00
WB7NNF2026-09-03 06:26:4548.13403-117.4906049°26km/h17503m2.5m/s-49.6°C0%0hPa0V00:00:0000:00:0000:00:00
WB7NNF2026-09-03 06:26:2548.13208-117.4928544°35km/h17400m6.6m/s-49.1°C0%0hPa0V00:00:0000:00:0000:00:00
WB7NNF2026-09-03 06:26:0448.12980-117.4946824°66km/h17306m1.4m/s-49.1°C0%0hPa0V00:00:0000:00:0000:00:00
WB7NNF2026-09-03 06:25:4248.12732-117.4964023°44km/h17197m2.0m/s-49.3°C0%0hPa0V00:00:0000:00:0000:00:00
WB7NNF2026-09-03 06:25:2048.12447-117.4975317°13km/h17102m2.0m/s-49.3°C0%0hPa0V00:00:0000:00:0000:00:00
WB7NNF2026-09-03 06:24:5948.12230-117.4984655km/h17010m2.2m/s-49.4°C0%0hPa0V00:00:0000:00:0000:00:00
WB7NNF2026-09-03 06:24:3848.12031-117.49938359°51km/h16916m6.9m/s-49.2°C0%0hPa0V00:00:0000:00:0000:00:00
WB7NNF2026-09-03 06:24:1748.11818-117.5001837°33km/h16820m3.5m/s-48.7°C0%0hPa0V00:00:0000:00:0000:00:00
WB7NNF2026-09-03 06:23:5448.11583-117.5012333km/h16710m4.5m/s-48.9°C0%0hPa0V00:00:0000:00:0000:00:00
WB7NNF2026-09-03 06:23:3348.11346-117.50171353°26km/h16612m3.6m/s-49.0°C0%0hPa0V00:00:0000:00:0000:00:00
WB7NNF2026-09-03 06:23:1248.11137-117.5026022°44km/h16520m6.8m/s-49.6°C0%0hPa0V00:00:0000:00:0000:00:00
WB7NNF2026-09-03 06:22:5248.10906-117.5037856°26km/h16408m4.1m/s-49.9°C0%0hPa0V00:00:0000:00:0000:00:00
WB7NNF2026-09-03 06:22:3148.10695-117.5043955km/h16319m6.7m/s-50.0°C0%0hPa0V00:00:0000:00:0000:00:00
WB7NNF2026-09-03 06:22:0948.10444-117.5056020°44km/h16214m4.1m/s-50.9°C0%0hPa0V00:00:0000:00:0000:00:00
WB7NNF2026-09-03 06:21:4848.10187-117.50677355°68km/h16118m2.6m/s-50.6°C0%0hPa0V00:00:0000:00:0000:00:00
WB7NNF2026-09-03 06:21:2648.09940-117.50797361°69km/h16004m0.3m/s-49.8°C0%0hPa0V00:00:0000:00:0000:00:00
WB7NNF2026-09-03 06:21:0448.09717-117.5092315°40km/h15897m7.0m/s-49.7°C0%0hPa0V00:00:0000:00:0000:00:00
WB7NNF2026-09-03 06:20:4448.09499-117.5103255°57km/h15789m6.9m/s-49.4°C0%0hPa0V00:00:0000:00:0000:00:00
WB7NNF2026-09-03 06:20:0148.09038-117.5147426°44km/h15587m6.0m/s-49.6°C0%0hPa0V00:00:0000:00:0000:00:00
WB7NNF2026-09-03 06:19:4048.08812-117.5166236°64km/h15502m3.3m/s-50.2°C0%0hPa0V00:00:0000:00:0000:00:00
WB7NNF2026-09-03 06:19:1948.08590-117.5181640°38km/h15412m6.4m/s-50.3°C0%0hPa0V00:00:0000:00:0000:00:00
WB7NNF2026-09-03 06:18:5948.08375-117.51891360°27km/h15334m1.7m/s-50.8°C0%0hPa0V00:00:0000:00:0000:00:00
WB7NNF2026-09-03 06:18:3948.08192-117.5198031°42km/h15252m2.9m/s-51.0°C0%0hPa0V00:00:0000:00:0000:00:00
WB7NNF2026-09-03 06:18:1848.08029-117.5199342°29km/h15155m6.7m/s-51.3°C0%0hPa0V00:00:0000:00:0000:00:00
WB7NNF2026-09-03 06:17:5748.07923-117.52006325°40km/h15053m3.6m/s-50.4°C0%0hPa0V00:00:0000:00:0000:00:00
WB7NNF2026-09-03 06:17:3348.07817-117.5201248°24km/h14936m7.8m/s-49.3°C0%0hPa0V00:00:0000:00:0000:00:00
WB7NNF2026-09-03 06:17:1248.07740-117.5204525°37km/h14819m5.0m/s-48.3°C0%0hPa0V00:00:0000:00:0000:00:00
WB7NNF2026-09-03 06:16:5048.07673-117.52110354°38km/h14706m3.2m/s-47.6°C0%0hPa0V00:00:0000:00:0000:00:00
WB7NNF2026-09-03 06:16:2948.07597-117.5223737km/h14588m4.3m/s-47.0°C0%0hPa0V00:00:0000:00:0000:00:00
WB7NNF2026-09-03 06:16:0548.07546-117.5241926°31km/h14471m5.6m/s-46.6°C0%0hPa0V00:00:0000:00:0000:00:00
WB7NNF2026-09-03 06:15:4548.07481-117.5261548°53km/h14363m3.5m/s-46.7°C0%0hPa0V00:00:0000:00:0000:00:00
WB7NNF2026-09-03 06:15:2448.07397-117.5287854°35km/h14254m4.2m/s-47.1°C0%0hPa0V00:00:0000:00:0000:00:00
WB7NNF2026-09-03 06:15:0448.07302-117.5320284°68km/h14146m5.2m/s-46.7°C0%0hPa0V00:00:0000:00:0000:00:00
WB7NNF2026-09-03 06:14:4348.07151-117.5356558°58km/h14043m6.7m/s-46.6°C0%0hPa0V00:00:0000:00:0000:00:00
WB7NNF2026-09-03 06:14:2248.06957-117.5394045°49km/h13952m4.6m/s-46.5°C0%0hPa0V00:00:0000:00:0000:00:00
WB7NNF2026-09-03 06:13:4148.06429-117.5464327°64km/h13790m3.4m/s-47.4°C0%0hPa0V00:00:0000:00:0000:00:00
WB7NNF2026-09-03 06:13:2148.06125-117.5490828°57km/h13712m4.7m/s-47.7°C0%0hPa0V00:00:0000:00:0000:00:00
WB7NNF2026-09-03 06:13:0048.05891-117.5515736°55km/h13633m5.5m/s-49.2°C0%0hPa0V00:00:0000:00:0000:00:00
WB7NNF2026-09-03 06:12:4048.05649-117.5544740°57km/h13550m5.1m/s-49.5°C0%0hPa0V00:00:0000:00:0000:00:00
WB7NNF2026-09-03 06:12:2048.05384-117.5572321°51km/h13462m4.7m/s-49.5°C0%0hPa0V00:00:0000:00:0000:00:00
WB7NNF2026-09-03 06:11:5948.05109-117.5596322°51km/h13365m4.6m/s-49.6°C0%0hPa0V00:00:0000:00:0000:00:00
WB7NNF2026-09-03 06:11:4148.04856-117.56133352°40km/h13265m7.1m/s-50.1°C0%0hPa0V00:00:0000:00:0000:00:00
WB7NNF2026-09-03 06:11:1848.04614-117.5629636°58km/h13158m5.6m/s-49.6°C0%0hPa0V00:00:0000:00:0000:00:00
WB7NNF2026-09-03 06:10:5748.04391-117.5649435°53km/h13053m2.3m/s-49.6°C0%0hPa0V00:00:0000:00:0000:00:00
WB7NNF2026-09-03 06:10:3748.04164-117.5660211°33km/h12951m6.8m/s-49.6°C0%0hPa0V00:00:0000:00:0000:00:00
WB7NNF2026-09-03 06:10:1648.03962-117.56644345°15km/h12851m5.0m/s-49.4°C0%0hPa0V00:00:0000:00:0000:00:00
WB7NNF2026-09-03 06:09:5548.03780-117.5671955km/h12752m4.3m/s-48.7°C0%0hPa0V00:00:0000:00:0000:00:00
WB7NNF2026-09-03 06:09:3548.03557-117.5689354°51km/h12643m3.9m/s-48.9°C0%0hPa0V00:00:0000:00:0000:00:00
WB7NNF2026-09-03 06:08:5448.02998-117.5738043°66km/h12473m4.2m/s-49.8°C0%0hPa0V00:00:0000:00:0000:00:00
WB7NNF2026-09-03 06:08:3348.02687-117.5760337°62km/h12394m1.7m/s-50.3°C0%0hPa0V00:00:0000:00:0000:00:00
WB7NNF2026-09-03 06:08:1348.02338-117.5782431°66km/h12310m2.1m/s-50.7°C0%0hPa0V00:00:0000:00:0000:00:00
WB7NNF2026-09-03 06:07:5248.01984-117.5799717°75km/h12223m5.2m/s-51.4°C0%0hPa0V00:00:0000:00:0000:00:00
WB7NNF2026-09-03 06:07:3248.01617-117.5814778km/h12129m4.4m/s-51.4°C0%0hPa0V00:00:0000:00:0000:00:00
WB7NNF2026-09-03 06:07:1148.01251-117.5826811°86km/h12030m3.6m/s-52.5°C0%0hPa0V00:00:0000:00:0000:00:00
WB7NNF2026-09-03 06:06:5148.00904-117.58369353°64km/h11931m2.5m/s-52.7°C0%0hPa0V00:00:0000:00:0000:00:00
WB7NNF2026-09-03 06:06:3048.00575-117.5839062km/h11821m4.5m/s-52.3°C0%0hPa0V00:00:0000:00:0000:00:00
WB7NNF2026-09-03 06:06:1048.00236-117.5835413°66km/h11720m3.2m/s-52.2°C0%0hPa0V00:00:0000:00:0000:00:00
WB7NNF2026-09-03 06:05:4947.99910-117.58296361°69km/h11624m3.6m/s-52.2°C0%0hPa0V00:00:0000:00:0000:00:00
WB7NNF2026-09-03 06:05:2947.99568-117.58192353°66km/h11531m5.1m/s-52.6°C0%0hPa0V00:00:0000:00:0000:00:00
WB7NNF2026-09-03 06:05:0847.99255-117.58064348°55km/h11443m3.5m/s-52.3°C0%0hPa0V00:00:0000:00:0000:00:00
WB7NNF2026-09-03 06:04:4847.98963-117.57949348°80km/h11355m3.5m/s-51.9°C0%0hPa0V00:00:0000:00:0000:00:00
WB7NNF2026-09-03 06:04:2647.98696-117.57851323°57km/h11268m3.0m/s-52.0°C0%0hPa0V00:00:0000:00:0000:00:00
WB7NNF2026-09-03 06:03:5147.98211-117.5785116°58km/h11080m4.4m/s-53.9°C0%0hPa0V00:00:0000:00:0000:00:00
WB7NNF2026-09-03 06:03:3147.97759-117.5803922°95km/h10990m6.7m/s-56.9°C0%0hPa0V00:00:0000:00:0000:00:00
WB7NNF2026-09-03 06:03:0147.97101-117.5815311°73km/h10840m3.8m/s-56.1°C0%0hPa0V00:00:0000:00:0000:00:00
WB7NNF2026-09-03 06:02:3947.96690-117.58153349°86km/h10757m5.7m/s-55.4°C0%0hPa0V00:00:0000:00:0000:00:00
WB7NNF2026-09-03 06:02:1847.96273-117.5811488km/h10664m3.3m/s-54.9°C0%0hPa0V00:00:0000:00:0000:00:00
WB7NNF2026-09-03 06:01:5847.95857-117.58051353°69km/h10577m3.7m/s-54.2°C0%0hPa0V00:00:0000:00:0000:00:00
WB7NNF2026-09-03 06:01:3747.95440-117.5793773km/h10449m3.6m/s-53.1°C0%0hPa0V00:00:0000:00:0000:00:00
WB7NNF2026-09-03 06:01:1547.95027-117.57842352°77km/h10357m3.5m/s-52.8°C0%0hPa0V00:00:0000:00:0000:00:00
WB7NNF2026-09-03 06:00:5047.94592-117.57760351°69km/h10256m2.7m/s-52.0°C0%0hPa0V00:00:0000:00:0000:00:00
WB7NNF2026-09-03 06:00:3047.94204-117.5769677km/h10164m2.8m/s-51.3°C0%0hPa0V00:00:0000:00:0000:00:00
WB7NNF2026-09-03 06:00:0947.93812-117.57619352°66km/h10073m5.0m/s-50.5°C0%0hPa0V00:00:0000:00:0000:00:00
WB7NNF2026-09-03 05:59:4747.93391-117.5754277km/h9977m4.6m/s-49.6°C0%0hPa0V00:00:0000:00:0000:00:00
WB7NNF2026-09-03 05:59:2547.92982-117.57484354°64km/h9878m2.8m/s-48.8°C0%0hPa0V00:00:0000:00:0000:00:00
WB7NNF2026-09-03 05:59:0447.92587-117.57438358°58km/h9785m3.5m/s-47.9°C0%0hPa0V00:00:0000:00:0000:00:00
WB7NNF2026-09-03 05:58:4347.92206-117.5741766km/h9692m4.2m/s-47.1°C0%0hPa0V00:00:0000:00:0000:00:00
WB7NNF2026-09-03 05:58:2347.91795-117.57408353°78km/h9598m6.6m/s-46.3°C0%0hPa0V00:00:0000:00:0000:00:00
WB7NNF2026-09-03 05:58:0247.91412-117.5740182km/h9511m5.0m/s-45.5°C0%0hPa0V00:00:0000:00:0000:00:00
WB7NNF2026-09-03 05:57:4247.91021-117.5739319°69km/h9422m3.9m/s-44.8°C0%0hPa0V00:00:0000:00:0000:00:00
WB7NNF2026-09-03 05:57:2147.90649-117.5740688km/h9339m2.1m/s-44.0°C0%0hPa0V00:00:0000:00:0000:00:00
WB7NNF2026-09-03 05:57:0147.90268-117.57453360°95km/h9234m5.9m/s-43.1°C0%0hPa0V00:00:0000:00:0000:00:00
WB7NNF2026-09-03 05:56:4047.89890-117.5749157km/h9145m5.2m/s-42.3°C0%0hPa0V00:00:0000:00:0000:00:00
WB7NNF2026-09-03 05:56:2047.89488-117.5753868km/h9046m5.0m/s-41.5°C0%0hPa0V00:00:0000:00:0000:00:00
WB7NNF2026-09-03 05:55:5947.89135-117.5761416°89km/h8956m3.4m/s-40.7°C0%0hPa0V00:00:0000:00:0000:00:00
WB7NNF2026-09-03 05:55:3947.88766-117.5767821°77km/h8866m3.5m/s-40.0°C0%0hPa0V00:00:0000:00:0000:00:00
WB7NNF2026-09-03 05:55:1847.88424-117.5773221°60km/h8781m5.1m/s-39.3°C0%0hPa0V00:00:0000:00:0000:00:00
WB7NNF2026-09-03 05:54:5847.88090-117.57786353°62km/h8693m2.7m/s-38.7°C0%0hPa0V00:00:0000:00:0000:00:00
WB7NNF2026-09-03 05:54:3747.87791-117.5783564km/h8605m4.6m/s-37.9°C0%0hPa0V00:00:0000:00:0000:00:00
WB7NNF2026-09-03 05:54:1747.87462-117.57874346°49km/h8490m4.3m/s-37.0°C0%0hPa0V00:00:0000:00:0000:00:00
WB7NNF2026-09-03 05:53:5647.87182-117.5792869km/h8390m3.8m/s-36.1°C0%0hPa0V00:00:0000:00:0000:00:00
WB7NNF2026-09-03 05:53:3547.86902-117.5799429°44km/h8282m3.0m/s-35.1°C0%0hPa0V00:00:0000:00:0000:00:00
WB7NNF2026-09-03 05:53:1547.86575-117.5805471km/h8151m8.6m/s-34.0°C0%0hPa0V00:00:0000:00:0000:00:00
WB7NNF2026-09-03 05:52:5447.86257-117.5804711°66km/h8017m8.3m/s-32.7°C0%0hPa0V00:00:0000:00:0000:00:00
WB7NNF2026-09-03 05:52:3247.85911-117.5804718°68km/h7871m5.8m/s-31.5°C0%0hPa0V00:00:0000:00:0000:00:00
WB7NNF2026-09-03 05:52:0847.85540-117.57989355°71km/h7735m4.1m/s-30.3°C0%0hPa0V00:00:0000:00:0000:00:00
WB7NNF2026-09-03 05:51:4547.85192-117.5792110°68km/h7642m2.8m/s-29.5°C0%0hPa0V00:00:0000:00:0000:00:00
WB7NNF2026-09-03 05:51:2547.84834-117.57850346°66km/h7546m8.2m/s-28.7°C0%0hPa0V00:00:0000:00:0000:00:00
WB7NNF2026-09-03 05:51:0347.84493-117.57806356°80km/h7423m5.0m/s-27.7°C0%0hPa0V00:00:0000:00:0000:00:00
WB7NNF2026-09-03 05:50:1647.83734-117.57724354°69km/h7162m6.0m/s-25.8°C0%0hPa0V00:00:0000:00:0000:00:00
WB7NNF2026-09-03 05:49:3547.83217-117.57635345°66km/h6923m6.1m/s-24.0°C0%0hPa0V00:00:0000:00:0000:00:00
WB7NNF2026-09-03 05:49:1447.82929-117.57635354°71km/h6821m3.3m/s-23.3°C0%0hPa0V00:00:0000:00:0000:00:00
WB7NNF2026-09-03 05:48:5047.82628-117.5762017°40km/h6671m4.8m/s-22.3°C0%0hPa0V00:00:0000:00:0000:00:00
WB7NNF2026-09-03 05:48:2947.82361-117.57665349°42km/h6551m5.2m/s-21.6°C0%0hPa0V00:00:0000:00:0000:00:00
WB7NNF2026-09-03 05:48:0947.82130-117.5771520°60km/h6440m3.9m/s-20.9°C0%0hPa0V00:00:0000:00:0000:00:00
WB7NNF2026-09-03 05:47:4647.81881-117.5780513°55km/h6329m8.0m/s-20.1°C0%0hPa0V00:00:0000:00:0000:00:00
WB7NNF2026-09-03 05:47:2447.81638-117.5787931°47km/h6228m3.1m/s-19.5°C0%0hPa0V00:00:0000:00:0000:00:00
WB7NNF2026-09-03 05:46:3947.81128-117.5804716°66km/h6006m7.4m/s-17.9°C0%0hPa0V00:00:0000:00:0000:00:00
WB7NNF2026-09-03 05:46:1747.80825-117.58140355°38km/h5874m5.1m/s-17.0°C0%0hPa0V00:00:0000:00:0000:00:00
WB7NNF2026-09-03 05:45:5647.80553-117.5818857km/h5763m4.3m/s-16.1°C0%0hPa0V00:00:0000:00:0000:00:00
WB7NNF2026-09-03 05:45:3647.80284-117.5822714°40km/h5651m5.7m/s-15.4°C0%0hPa0V00:00:0000:00:0000:00:00
WB7NNF2026-09-03 05:45:0447.79888-117.5834323°60km/h5489m4.9m/s-15.1°C0%0hPa0V00:00:0000:00:0000:00:00
WB7NNF2026-09-03 05:44:4347.79574-117.5845912°77km/h5389m5.1m/s-14.5°C0%0hPa0V00:00:0000:00:0000:00:00
WB7NNF2026-09-03 05:44:2347.79214-117.58566358°66km/h5286m4.7m/s-13.7°C0%0hPa0V00:00:0000:00:0000:00:00
WB7NNF2026-09-03 05:44:0247.78906-117.5854510°46km/h5189m4.6m/s-12.9°C0%0hPa0V00:00:0000:00:0000:00:00
WB7NNF2026-09-03 05:43:4247.78642-117.5864317°62km/h5089m4.6m/s-12.7°C0%0hPa0V00:00:0000:00:0000:00:00
WB7NNF2026-09-03 05:43:2047.78288-117.5873678km/h4976m4.6m/s-12.1°C0%0hPa0V00:00:0000:00:0000:00:00
WB7NNF2026-09-03 05:41:5647.76955-117.58579353°69km/h4539m5.6m/s-10.4°C0%0hPa0V00:00:0000:00:0000:00:00
WB7NNF2026-09-03 05:39:4147.74806-117.5914720°66km/h3783m5.9m/s-6.3°C0%0hPa0V00:00:0000:00:0000:00:00


GPX KML Map

© wettersonde.net (DO2JMG) - 2026  -  -